,

(GMT )
Hultsfred

Weather History for ESSF - March, 2014

Change the Weather History Date:

Monday, March 10, 2014

  Actual Average Record
Temperature  
Mean Temperature 46 °F -  
Max Temperature 61 °F - - ()
Min Temperature 30 °F - - ()
Degree Days  
Heating Degree Days 20    
Moisture  
Dew Point 36 °F    
Average Humidity 64    
Maximum Humidity 96    
Minimum Humidity 32    
Precipitation  
Precipitation 0.00 in - - ()
Sea Level Pressure  
Sea Level Pressure 30.22 in    
Wind  
Wind Speed 6 mph ()    
Max Wind Speed 16 mph    
Max Gust Speed -    
Visibility 5.4 miles    
Events      
T = Trace of Precipitation, MM = Missing Value Source: Averaged Metar Reports

Daily Weather History Graph

Daily Weather History Graph

Search for Another Location

Airport or City:

Trip Planner

Search our weather history database for the weather conditions in past years. The results will help you decide how hot, cold, wet, or windy it might be!

Date:

Astronomy

Mar. 10, 2014 Rise Set
Actual Time 6:26 AM CET 5:48 PM CET
Civil Twilight 5:48 AM CET 6:26 PM CET
Nautical Twilight 5:03 AM CET 7:12 PM CET
Astronomical Twilight 4:16 AM CET 7:58 PM CET
Moon 11:24 AM CET (3/10) 3:18 AM CET (3/10)
Length of Visible Light 12h 38m
Length of Day
11h 21m
Waxing Gibbous, 68% of the Moon is Illuminated
Mar 10
Waxing Gibbous
Mar 16
Full
Mar 24
Last Quarter
Mar 30
New
Apr 7
First Quarter

Hourly Weather History & Observations

Time (CET) Temp. Dew Point Humidity Pressure Visibility Wind Dir Wind Speed Gust Speed Precip Events Conditions
12:00 AM 46 °F 36 °F 59% 30.23 in 4 mi SW 8.9 mph - -   Light Haze
1:00 AM 46 °F 36 °F 59% 30.24 in 4 mi SW 8.9 mph - -   Light Haze
2:00 AM 44 °F 36 °F 64% 30.23 in 4 mi SW 8.9 mph - -   Light Haze
3:00 AM 43 °F 36 °F 67% 30.22 in 4 mi SW 6.7 mph - -   Light Haze
4:00 AM 37 °F 33 °F 80% 30.22 in 3 mi NW 2.2 mph - -   Mist
5:00 AM 34 °F 32 °F 89% 30.21 in 2 mi West 2.2 mph - -   Mist
6:00 AM 31 °F 29 °F 90% 30.20 in 2 mi NW 2.2 mph - -   Mist
7:00 AM 32 °F 31 °F 96% 30.19 in 2 mi SW 2.2 mph - -   Mist
8:00 AM 36 °F 35 °F 93% 30.20 in 2 mi West 2.2 mph - -   Mist
9:00 AM 47 °F 39 °F 64% 30.20 in 3 mi WSW 4.5 mph - -   Light Haze
10:00 AM 52 °F 39 °F 49% 30.18 in 5 mi SW 4.5 mph - -   Light Haze
11:00 AM 56 °F 39 °F 42% 30.16 in 6 mi WSW 11.2 mph - -   Light Haze
12:00 PM 58 °F 39 °F 37% 30.15 in 6 mi WSW 15.7 mph - -   Clear
1:00 PM 61 °F 40 °F 35% 30.12 in 6 mi WSW 13.4 mph - -   Light Haze
2:00 PM 60 °F 38 °F 32% 30.12 in 6 mi West 15.7 mph - -   Clear
3:00 PM 59 °F 40 °F 38% 30.13 in 5 mi WSW 13.4 mph - -   Light Haze
4:00 PM 57 °F 41 °F 44% 30.15 in 6 mi West 11.2 mph - -   Clear
5:00 PM 52 °F 42 °F 58% 30.19 in 6 mi NW 8.9 mph - -   Light Haze
6:00 PM 49 °F 41 °F 65% 30.22 in 7 mi West 6.7 mph - -   Clear
7:00 PM 48 °F 39 °F 61% 30.27 in 10 mi WNW 11.2 mph - -   Clear
8:00 PM 45 °F 36 °F 62% 30.30 in 10 mi NW 6.7 mph - -  
9:00 PM 40 °F 35 °F 75% 30.33 in 10 mi West 4.5 mph - -  
10:00 PM 35 °F 32 °F 86% 30.36 in 8 mi Calm Calm - -  
11:00 PM 33 °F 31 °F 92% 30.38 in 8 mi West 2.2 mph - -